Погода в Горохове

Украина / Волынская область     50°29′57″N   24°45′53″E
темп.,
°C
ветер,
м/с
пор.,
м/с
влажн.,
%
обл.,
%
осадки,
мм/ч
давл.,
гПа
погр.,
м
2 июля, сб
сб200:00+22вюв512675 0.0 1016252
03:00+20вюв4116946 0.0 1017230
06:00+19юв4127026 0.0 1017246
09:00+23ююв57572 0.0 1018528
12:00+27ююв45545 0.0 10181146
15:00+29ююз555240 0.0 10181658
18:00+26з3269100 1.6 1018388
21:00+20сз589565 7.3 1019361
3 июля, вс
вс300:00+18зсз4998100 1.3 1020405
03:00+17сз4797100 1.3 1020479
06:00+17зсз3698100 0.2 1020355
09:00+18зсз4591100 0.2 1020455
12:00+22сз446495 0.1 10201223
15:00+24зюз135474 0.1 10181444
18:00+26ссз234738 0.0 10171688
21:00+21ссз1270100 0.0 101826
4 июля, пн
пн400:00+18св2285100 0.0 101825
03:00+16юв119099 0.0 101811
06:00+15ю11920 0.0 101811
09:00+21зсз227136 0.0 1018418
12:00+26сз22533 0.0 10171400
15:00+28зсз23440 0.0 10161895
18:00+28сз23423 0.0 10151920
21:00+23сз11605 0.0 101511
5 июля, вт
вт500:00+20сз016427 0.0 101611
03:00+19ю227139 0.0 101612
06:00+18ююв2275100 0.0 101616
09:00+24в115899 0.0 1016229
12:00+28всв224468 0.0 10161113
15:00+30в223999 0.0 10152091
18:00+24с91066100 0.0 1014569
21:00+19с61095100 4.2 1017459
6 июля, ср
ср600:00+17ссв2497100 0.9 1018187
03:00+17с4898100 1.0 1018301
06:00+16ссз4698100 1.1 1018319
09:00+16с3796100 2.0 1018375
12:00+18с457684 0.1 1019731
15:00+24ссв354560 0.1 10182115
18:00+24ссз234887 0.0 1018902
21:00+19сз226499 0.0 101820